[{"OBJECT_NAME":"KINEIS-2A","OBJECT_ID":"2025-028E","EPOCH":"2026-09-12T03:39:18.162720","MEAN_MOTION":14.73562525,"ECCENTRICITY":0.00033607,"INCLINATION":98.1222,"RA_OF_ASC_NODE":310.6659,"ARG_OF_PERICENTER":239.3814,"MEAN_ANOMALY":120.7063,"EPHEMERIS_TYPE":0,"CLASSIFICATION_TYPE":"U","NORAD_CAT_ID":62932,"ELEMENT_SET_NO":999,"REV_AT_EPOCH":8541,"BSTAR":0.00013408766,"MEAN_MOTION_DOT":0.00000821,"MEAN_MOTION_DDOT":0},{"OBJECT_NAME":"KINEIS-2B","OBJECT_ID":"2025-028G","EPOCH":"2026-09-12T03:06:53.488800","MEAN_MOTION":14.73565068,"ECCENTRICITY":0.00026184,"INCLINATION":97.9589,"RA_OF_ASC_NODE":306.3886,"ARG_OF_PERICENTER":211.7612,"MEAN_ANOMALY":148.3439,"EPHEMERIS_TYPE":0,"CLASSIFICATION_TYPE":"U","NORAD_CAT_ID":62934,"ELEMENT_SET_NO":999,"REV_AT_EPOCH":8546,"BSTAR":0.00013773875,"MEAN_MOTION_DOT":0.00000847,"MEAN_MOTION_DDOT":0},{"OBJECT_NAME":"KINEIS-4E","OBJECT_ID":"2025-056A","EPOCH":"2026-09-12T07:22:43.818240","MEAN_MOTION":14.72301988,"ECCENTRICITY":0.0000926,"INCLINATION":97.9134,"RA_OF_ASC_NODE":16.8337,"ARG_OF_PERICENTER":183.9228,"MEAN_ANOMALY":176.1973,"EPHEMERIS_TYPE":0,"CLASSIFICATION_TYPE":"U","NORAD_CAT_ID":63300,"ELEMENT_SET_NO":999,"REV_AT_EPOCH":7994,"BSTAR":0.00017215291,"MEAN_MOTION_DOT":0.0000104,"MEAN_MOTION_DDOT":0},{"OBJECT_NAME":"KINEIS-4C","OBJECT_ID":"2025-056B","EPOCH":"2026-09-12T07:41:07.720800","MEAN_MOTION":14.72326686,"ECCENTRICITY":0.00045363,"INCLINATION":97.9188,"RA_OF_ASC_NODE":17.133,"ARG_OF_PERICENTER":58.8175,"MEAN_ANOMALY":301.3477,"EPHEMERIS_TYPE":0,"CLASSIFICATION_TYPE":"U","NORAD_CAT_ID":63301,"ELEMENT_SET_NO":999,"REV_AT_EPOCH":7995,"BSTAR":0.00017606194,"MEAN_MOTION_DOT":0.00001065,"MEAN_MOTION_DDOT":0},{"OBJECT_NAME":"KINEIS-4D","OBJECT_ID":"2025-056C","EPOCH":"2026-09-12T07:47:40.341408","MEAN_MOTION":14.72346691,"ECCENTRICITY":0.00036531,"INCLINATION":97.9109,"RA_OF_ASC_NODE":17.0502,"ARG_OF_PERICENTER":72.5168,"MEAN_ANOMALY":287.6439,"EPHEMERIS_TYPE":0,"CLASSIFICATION_TYPE":"U","NORAD_CAT_ID":63302,"ELEMENT_SET_NO":999,"REV_AT_EPOCH":7995,"BSTAR":0.00017483142,"MEAN_MOTION_DOT":0.00001058,"MEAN_MOTION_DDOT":0},{"OBJECT_NAME":"KINEIS-4A","OBJECT_ID":"2025-056D","EPOCH":"2026-09-12T06:58:37.123680","MEAN_MOTION":14.72279387,"ECCENTRICITY":0.00021458,"INCLINATION":97.9204,"RA_OF_ASC_NODE":17.0398,"ARG_OF_PERICENTER":47.3693,"MEAN_ANOMALY":312.7695,"EPHEMERIS_TYPE":0,"CLASSIFICATION_TYPE":"U","NORAD_CAT_ID":63303,"ELEMENT_SET_NO":999,"REV_AT_EPOCH":7994,"BSTAR":0.00016761423,"MEAN_MOTION_DOT":0.0000101,"MEAN_MOTION_DDOT":0},{"OBJECT_NAME":"KINEIS-4B","OBJECT_ID":"2025-056E","EPOCH":"2026-09-12T08:11:34.240128","MEAN_MOTION":14.72349103,"ECCENTRICITY":0.00059503,"INCLINATION":97.9216,"RA_OF_ASC_NODE":17.155,"ARG_OF_PERICENTER":31.8693,"MEAN_ANOMALY":328.2874,"EPHEMERIS_TYPE":0,"CLASSIFICATION_TYPE":"U","NORAD_CAT_ID":63304,"ELEMENT_SET_NO":999,"REV_AT_EPOCH":7994,"BSTAR":0.00016778036,"MEAN_MOTION_DOT":0.00001013,"MEAN_MOTION_DDOT":0}]